Location: Curupao
(10.4996°N, 66.6442°W)
Time: 00:44:07
(UTC+00:00)

Cosmos 1354 Rocket - Pass Details

Date: 23 May 2024
Orbit: 762 x 781 km, 74.0° (Epoch: 12 June)

Event Time Altitude Azimuth Distance (km) Brightness Sun altitude
Exits shadow 07:49:01 58° 41° (NE) 901 4.5 -30.6°
Drops below altitude 10° 07:53:20 10° 18° (NNE) 2,324 7.0 -29.7°
Sets 07:55:44 0° 16° (NNE) 3,253 7.9 -29.2°
